Retour au catalogue

QIANFAN-229

ActifCommunicationsPO
NORAD 69858·PAYLOAD·🇨🇳 China

Lancé Jul 5, 2026 depuis Wenchang Space Launch Site

Loading…

Prochains Passages (prochaines 24 heures)

TLE

FraisSource: Space-Track

Époque: Sep 14, 2026, 11:12 UTC

1 69858U 26155L   26257.46703060 -.01820852  00000-0 -29475+1 0  9998
2 69858  89.0078  54.3065 0038590  30.5404 329.7984 13.52244598  9929

Suivez QIANFAN-229 en temps réel avec AllMySat

Download on the App Store